NWS228 USTR-URMM

Flight info

Callsign NWS228
Flight time N/A
Altitude 34000
Route BEPA1Q BEPAR T448 BANAM T348 EKB T764 DILUP T173 EKRIM T764 GITEK T691 UROBO R807 NIRGA G481 LARIN LARI5A
Aircraft B738/M-SDE1FGHIJ1RWXYZ/LB1

Departure

Time 2026-05-01 11:04
Airport Roshchino International Airport (USTR)

Arrival

Time N/A
Airport Mineralnye Vody Airport (URMM)
Time Latitude Longitude Altitude Speed Heading
2026-05-01 10:23 57.18051 65.34846 340 ft 0 kts 45°
2026-05-01 10:32 57.18051 65.34845 340 ft 0 kts 45°
2026-05-01 10:46 57.18042 65.34828 340 ft 4 kts 45°
2026-05-01 10:47 57.18022 65.34793 319 ft 4 kts 43°
2026-05-01 10:47 57.18007 65.34769 339 ft 2 kts 30°
2026-05-01 10:47 57.17996 65.34761 338 ft 2 kts 350°
2026-05-01 10:47 57.17986 65.34770 334 ft 2 kts 317°
2026-05-01 10:48 57.17978 65.34784 335 ft 2 kts 314°
2026-05-01 10:48 57.17978 65.34785 335 ft 0 kts 314°
2026-05-01 10:51 57.17982 65.34778 337 ft 3 kts 313°
2026-05-01 10:52 57.18008 65.34729 338 ft 8 kts 315°
2026-05-01 10:52 57.18055 65.34641 340 ft 11 kts 314°
2026-05-01 10:52 57.18111 65.34537 337 ft 11 kts 315°
2026-05-01 10:52 57.18166 65.34436 338 ft 11 kts 315°
2026-05-01 10:53 57.18219 65.34339 338 ft 11 kts 315°
2026-05-01 10:53 57.18270 65.34243 337 ft 10 kts 315°
2026-05-01 10:53 57.18321 65.34150 339 ft 10 kts 315°
2026-05-01 10:53 57.18369 65.34060 337 ft 10 kts 315°
2026-05-01 10:54 57.18417 65.33972 337 ft 10 kts 315°
2026-05-01 10:54 57.18466 65.33881 339 ft 10 kts 314°
2026-05-01 10:54 57.18521 65.33777 338 ft 12 kts 315°
2026-05-01 10:54 57.18582 65.33665 337 ft 12 kts 314°
2026-05-01 10:55 57.18618 65.33533 339 ft 12 kts 272°
2026-05-01 10:55 57.18617 65.33385 339 ft 12 kts 257°
2026-05-01 10:55 57.18570 65.33270 335 ft 11 kts 226°
2026-05-01 10:55 57.18516 65.33169 333 ft 11 kts 226°
2026-05-01 10:56 57.18479 65.33052 329 ft 11 kts 259°
2026-05-01 10:56 57.18475 65.32909 331 ft 13 kts 268°
2026-05-01 10:56 57.18471 65.32691 325 ft 20 kts 268°
2026-05-01 10:56 57.18466 65.32398 327 ft 25 kts 268°
2026-05-01 10:57 57.18461 65.32089 336 ft 23 kts 268°
2026-05-01 10:57 57.18455 65.31813 353 ft 16 kts 265°
2026-05-01 10:57 57.18410 65.31669 349 ft 13 kts 229°
2026-05-01 10:57 57.18352 65.31551 356 ft 13 kts 227°
2026-05-01 10:58 57.18283 65.31413 358 ft 16 kts 227°
2026-05-01 10:58 57.18204 65.31253 361 ft 18 kts 228°
2026-05-01 10:58 57.18115 65.31072 368 ft 20 kts 227°
2026-05-01 10:58 57.18016 65.30871 370 ft 22 kts 227°
2026-05-01 10:59 57.17909 65.30654 374 ft 24 kts 228°
2026-05-01 10:59 57.17795 65.30422 377 ft 24 kts 228°
2026-05-01 10:59 57.17685 65.30203 380 ft 23 kts 226°
2026-05-01 10:59 57.17581 65.29988 382 ft 22 kts 229°
2026-05-01 11:00 57.17478 65.29781 384 ft 21 kts 226°
2026-05-01 11:00 57.17379 65.29579 386 ft 21 kts 227°
2026-05-01 11:00 57.17284 65.29387 386 ft 20 kts 227°
2026-05-01 11:00 57.17189 65.29197 387 ft 20 kts 228°
2026-05-01 11:01 57.17096 65.29007 386 ft 20 kts 227°
2026-05-01 11:01 57.17005 65.28823 385 ft 19 kts 228°
2026-05-01 11:01 57.16918 65.28647 384 ft 18 kts 227°
2026-05-01 11:01 57.16856 65.28496 383 ft 12 kts 260°
2026-05-01 11:02 57.16876 65.28345 382 ft 12 kts 287°
2026-05-01 11:02 57.16903 65.28200 380 ft 12 kts 300°
2026-05-01 11:02 57.16955 65.28182 380 ft 7 kts 39°
2026-05-01 11:02 57.16973 65.28216 380 ft 2 kts 47°
2026-05-01 11:03 57.17002 65.28274 381 ft 20 kts 47°
2026-05-01 11:03 57.17262 65.28799 385 ft 90 kts 47°
2026-05-01 11:03 57.17825 65.29936 378 ft 148 kts 47°
2026-05-01 11:03 57.18596 65.31516 685 ft 171 kts 45°
2026-05-01 11:04 57.19432 65.33210 931 ft 193 kts 46°
2026-05-01 11:04 57.20401 65.35101 1402 ft 209 kts 37°
2026-05-01 11:04 57.21768 65.35989 1873 ft 220 kts 356°
2026-05-01 11:04 57.23204 65.35029 2177 ft 227 kts 317°
2026-05-01 11:05 57.23996 65.32572 2694 ft 226 kts 276°
2026-05-01 11:05 57.23842 65.29611 3015 ft 246 kts 255°
2026-05-01 11:05 57.23392 65.26375 3248 ft 272 kts 255°
2026-05-01 11:05 57.22946 65.22918 3995 ft 278 kts 256°
2026-05-01 11:06 57.22509 65.19372 4632 ft 292 kts 256°
2026-05-01 11:06 57.22071 65.15642 5064 ft 309 kts 257°
2026-05-01 11:06 57.21624 65.11750 5952 ft 309 kts 257°
2026-05-01 11:07 57.20758 65.03936 7488 ft 316 kts 257°
2026-05-01 11:07 57.20318 64.99926 8189 ft 320 kts 257°
2026-05-01 11:07 57.19875 64.95884 8949 ft 322 kts 257°
2026-05-01 11:07 57.19428 64.91822 9713 ft 323 kts 257°
2026-05-01 11:08 57.18978 64.87751 10396 ft 325 kts 256°
2026-05-01 11:08 57.18525 64.83654 11069 ft 326 kts 256°
2026-05-01 11:08 57.17611 64.75446 12402 ft 330 kts 256°
2026-05-01 11:09 57.17146 64.71290 13095 ft 332 kts 256°
2026-05-01 11:09 57.16677 64.67101 13746 ft 334 kts 256°
2026-05-01 11:09 57.16204 64.62892 14290 ft 337 kts 256°
2026-05-01 11:10 57.15241 64.54374 15470 ft 340 kts 255°
2026-05-01 11:10 57.14755 64.50094 16048 ft 342 kts 256°
2026-05-01 11:10 57.14408 64.45730 16579 ft 347 kts 261°
2026-05-01 11:10 57.14252 64.41328 17119 ft 350 kts 263°
2026-05-01 11:11 57.14149 64.36832 17696 ft 352 kts 264°
2026-05-01 11:11 57.14049 64.32318 18208 ft 354 kts 263°
2026-05-01 11:11 57.13936 64.27761 18680 ft 356 kts 263°
2026-05-01 11:11 57.13809 64.23205 19178 ft 357 kts 263°
2026-05-01 11:12 57.13671 64.18635 19664 ft 357 kts 262°
2026-05-01 11:12 57.13525 64.14056 20134 ft 359 kts 262°
2026-05-01 11:12 57.13373 64.09453 20545 ft 362 kts 262°
2026-05-01 11:12 57.13219 64.04861 20976 ft 364 kts 262°
2026-05-01 11:13 57.13061 64.00206 21432 ft 365 kts 261°
2026-05-01 11:13 57.12900 63.95526 21885 ft 366 kts 261°
2026-05-01 11:13 57.12737 63.90824 22282 ft 369 kts 261°
2026-05-01 11:13 57.12573 63.86091 22710 ft 371 kts 261°
2026-05-01 11:14 57.12404 63.81338 23175 ft 373 kts 261°
2026-05-01 11:14 57.12227 63.76559 23577 ft 374 kts 259°
2026-05-01 11:14 57.11843 63.71901 23884 ft 373 kts 253°
2026-05-01 11:14 57.11298 63.67208 24210 ft 374 kts 253°
2026-05-01 11:15 57.10741 63.62530 24542 ft 375 kts 253°
2026-05-01 11:15 57.10178 63.57826 24849 ft 377 kts 252°
2026-05-01 11:15 57.09613 63.53090 25116 ft 379 kts 253°
2026-05-01 11:15 57.09239 63.49941 25315 ft 380 kts 252°
2026-05-01 11:16 57.08490 63.43629 25796 ft 383 kts 252°
2026-05-01 11:16 57.07919 63.38820 26260 ft 385 kts 252°
2026-05-01 11:16 57.07540 63.35624 26526 ft 387 kts 252°
2026-05-01 11:16 57.06961 63.30759 26877 ft 391 kts 252°
2026-05-01 11:17 57.06187 63.24274 27417 ft 392 kts 252°
2026-05-01 11:17 57.05790 63.20957 27692 ft 392 kts 252°
2026-05-01 11:17 57.05208 63.16100 27991 ft 395 kts 252°
2026-05-01 11:17 57.04612 63.11159 28250 ft 397 kts 252°
2026-05-01 11:18 57.04012 63.06191 28552 ft 399 kts 252°
2026-05-01 11:18 57.03406 63.01194 28878 ft 400 kts 251°
2026-05-01 11:18 57.02801 62.96216 29275 ft 399 kts 251°
2026-05-01 11:18 57.02195 62.91247 29722 ft 397 kts 251°
2026-05-01 11:19 57.01597 62.86358 30128 ft 395 kts 251°
2026-05-01 11:19 57.00994 62.81451 30507 ft 393 kts 251°
2026-05-01 11:19 57.00391 62.76558 30859 ft 392 kts 251°
2026-05-01 11:19 56.99787 62.71682 31174 ft 391 kts 251°
2026-05-01 11:20 56.99183 62.66825 31533 ft 389 kts 251°
2026-05-01 11:20 56.98580 62.61996 31914 ft 386 kts 251°
2026-05-01 11:20 56.97986 62.57248 32228 ft 385 kts 250°
2026-05-01 11:20 56.97383 62.52451 32490 ft 386 kts 250°
2026-05-01 11:21 56.96779 62.47665 32842 ft 384 kts 250°
2026-05-01 11:21 56.96177 62.42902 33158 ft 383 kts 250°
2026-05-01 11:21 56.95571 62.38135 33366 ft 384 kts 250°
2026-05-01 11:21 56.94962 62.33358 33552 ft 386 kts 250°
2026-05-01 11:22 56.94348 62.28561 33797 ft 385 kts 250°
2026-05-01 11:22 56.93740 62.23818 33821 ft 387 kts 250°
2026-05-01 11:22 56.92503 62.14207 33839 ft 386 kts 250°
2026-05-01 11:23 56.91266 62.04647 33849 ft 384 kts 250°
2026-05-01 11:23 56.90033 61.95197 33850 ft 383 kts 250°
2026-05-01 11:24 56.88786 61.85702 33856 ft 383 kts 249°
2026-05-01 11:25 56.86908 61.71529 33869 ft 385 kts 249°
2026-05-01 11:25 56.84988 61.57175 33870 ft 389 kts 249°
2026-05-01 11:26 56.83034 61.42689 33860 ft 392 kts 249°
2026-05-01 11:27 56.81723 61.33052 33872 ft 394 kts 249°
2026-05-01 11:27 56.80392 61.23322 33884 ft 395 kts 249°
2026-05-01 11:28 56.79048 61.13558 33880 ft 397 kts 249°
2026-05-01 11:28 56.77700 61.03832 33898 ft 398 kts 249°
2026-05-01 11:29 56.75639 60.89072 33890 ft 400 kts 249°
2026-05-01 11:29 56.73473 60.79984 33890 ft 386 kts 234°
2026-05-01 11:30 56.72006 60.75968 33878 ft 383 kts 229°
2026-05-01 11:30 56.68366 60.69034 33888 ft 378 kts 221°
2026-05-01 11:31 56.64566 60.62386 33879 ft 379 kts 221°
2026-05-01 11:31 56.60775 60.55690 33891 ft 380 kts 221°
2026-05-01 11:32 56.57021 60.48877 33890 ft 382 kts 223°
2026-05-01 11:32 56.53301 60.42034 33890 ft 384 kts 223°
2026-05-01 11:33 56.49477 60.35231 33904 ft 386 kts 221°
2026-05-01 11:33 56.45610 60.28493 33896 ft 388 kts 221°
2026-05-01 11:34 56.41712 60.21683 33913 ft 390 kts 221°
2026-05-01 11:34 56.37801 60.14849 33911 ft 392 kts 221°
2026-05-01 11:35 56.33896 60.08022 33900 ft 393 kts 221°
2026-05-01 11:35 56.29962 60.01163 34072 ft 393 kts 221°
2026-05-01 11:36 56.25958 59.94210 33972 ft 406 kts 220°
2026-05-01 11:36 56.21833 59.87066 33923 ft 416 kts 220°
2026-05-01 11:37 56.17652 59.79842 33917 ft 420 kts 220°
2026-05-01 11:37 56.13419 59.72550 33913 ft 422 kts 220°
2026-05-01 11:38 56.09201 59.65306 33916 ft 422 kts 220°
2026-05-01 11:38 56.05129 59.57688 33918 ft 425 kts 229°
2026-05-01 11:39 56.02103 59.48488 33932 ft 429 kts 238°
2026-05-01 11:39 55.99393 59.39054 33922 ft 429 kts 238°
2026-05-01 11:40 55.96631 59.29566 33927 ft 428 kts 238°
2026-05-01 11:40 55.93865 59.20181 33920 ft 428 kts 238°
2026-05-01 11:41 55.91097 59.10854 33924 ft 426 kts 238°
2026-05-01 11:41 55.88316 59.01516 33931 ft 425 kts 238°
2026-05-01 11:42 55.85557 58.92292 33939 ft 425 kts 238°
2026-05-01 11:42 55.82768 58.82992 33932 ft 425 kts 238°
2026-05-01 11:43 55.79972 58.73714 33923 ft 424 kts 238°
2026-05-01 11:43 55.77186 58.64513 33943 ft 423 kts 238°
2026-05-01 11:44 55.72997 58.50745 33932 ft 423 kts 238°
2026-05-01 11:44 55.70187 58.41545 33948 ft 423 kts 238°
2026-05-01 11:45 55.67368 58.32353 33939 ft 423 kts 238°
2026-05-01 11:45 55.64564 58.23245 33938 ft 424 kts 238°
2026-05-01 11:46 55.61723 58.14049 33936 ft 425 kts 238°
2026-05-01 11:46 55.58871 58.04848 33933 ft 426 kts 238°
2026-05-01 11:47 55.56030 57.95723 33936 ft 426 kts 238°
2026-05-01 11:47 55.53144 57.86533 33932 ft 427 kts 237°
2026-05-01 11:48 55.50268 57.77423 33928 ft 427 kts 238°
2026-05-01 11:48 55.47371 57.68273 33928 ft 427 kts 238°
2026-05-01 11:49 55.44476 57.59160 33929 ft 427 kts 238°
2026-05-01 11:49 55.41561 57.50017 33928 ft 427 kts 238°
2026-05-01 11:50 55.38640 57.40890 33928 ft 427 kts 238°
2026-05-01 11:50 55.35734 57.31843 33927 ft 426 kts 238°
2026-05-01 11:51 55.32804 57.22750 33940 ft 426 kts 238°
2026-05-01 11:51 55.29891 57.13750 33928 ft 426 kts 238°
2026-05-01 11:52 55.26950 57.04678 33923 ft 426 kts 238°
2026-05-01 11:52 55.24013 56.95641 33926 ft 426 kts 238°
2026-05-01 11:53 55.21087 56.86669 33930 ft 426 kts 238°
2026-05-01 11:53 55.18133 56.77646 33921 ft 426 kts 238°
2026-05-01 11:54 55.15178 56.68654 33924 ft 426 kts 238°
2026-05-01 11:54 55.12222 56.59684 33917 ft 426 kts 238°
2026-05-01 11:55 55.09266 56.50755 33929 ft 426 kts 238°
2026-05-01 11:55 55.06307 56.41847 33917 ft 426 kts 238°
2026-05-01 11:56 55.03333 56.32921 33913 ft 426 kts 238°
2026-05-01 11:56 55.00352 56.23999 33915 ft 425 kts 238°
2026-05-01 11:57 54.97871 56.16600 33915 ft 425 kts 238°
2026-05-01 11:57 54.94387 56.06245 33918 ft 425 kts 238°
2026-05-01 11:58 54.91379 55.97336 33915 ft 426 kts 238°
2026-05-01 11:59 54.86883 55.84091 33915 ft 425 kts 238°
2026-05-01 11:59 54.83855 55.75238 33916 ft 425 kts 238°
2026-05-01 12:00 54.79325 55.62046 33918 ft 426 kts 238°
2026-05-01 12:01 54.74772 55.48850 33911 ft 426 kts 238°
2026-05-01 12:01 54.71734 55.40081 33920 ft 425 kts 238°
2026-05-01 12:02 54.68676 55.31282 33926 ft 425 kts 238°
2026-05-01 12:02 54.65635 55.22571 33925 ft 425 kts 238°
2026-05-01 12:03 54.63066 55.15235 33921 ft 425 kts 238°
2026-05-01 12:03 54.60025 55.06570 33918 ft 425 kts 238°
2026-05-01 12:04 54.56956 54.97852 33922 ft 425 kts 238°
2026-05-01 12:04 54.53873 54.89135 33930 ft 425 kts 238°
2026-05-01 12:05 54.50808 54.80499 33929 ft 425 kts 238°
2026-05-01 12:05 54.46171 54.67480 33932 ft 424 kts 238°
2026-05-01 12:06 54.43092 54.58871 33935 ft 424 kts 238°
2026-05-01 12:06 54.39993 54.50229 33940 ft 424 kts 238°
2026-05-01 12:07 54.36893 54.41625 33941 ft 424 kts 238°
2026-05-01 12:07 54.33807 54.33097 33946 ft 423 kts 238°
2026-05-01 12:08 54.30692 54.24514 33947 ft 423 kts 238°
2026-05-01 12:08 54.27573 54.15946 33953 ft 423 kts 238°
2026-05-01 12:09 54.24469 54.07444 33953 ft 423 kts 238°
2026-05-01 12:09 54.21341 53.98907 33963 ft 423 kts 238°
2026-05-01 12:10 54.16653 53.86169 33965 ft 423 kts 238°
2026-05-01 12:11 54.11935 53.73410 33970 ft 423 kts 237°
2026-05-01 12:11 54.08802 53.64970 33973 ft 423 kts 237°
2026-05-01 12:12 54.05642 53.56498 33969 ft 423 kts 237°
2026-05-01 12:12 54.02496 53.48100 33979 ft 423 kts 237°
2026-05-01 12:13 53.99332 53.39676 33978 ft 423 kts 237°
2026-05-01 12:13 53.96160 53.31256 33984 ft 422 kts 237°
2026-05-01 12:14 53.92982 53.22846 33986 ft 422 kts 237°
2026-05-01 12:14 53.89817 53.14498 33990 ft 422 kts 237°
2026-05-01 12:15 53.86629 53.06116 33986 ft 423 kts 237°
2026-05-01 12:15 53.83447 52.97778 33991 ft 422 kts 237°
2026-05-01 12:16 53.80198 52.89472 33990 ft 423 kts 236°
2026-05-01 12:16 53.76895 52.81277 33992 ft 423 kts 236°
2026-05-01 12:17 53.73588 52.73092 33990 ft 423 kts 236°
2026-05-01 12:17 53.70269 52.64877 33990 ft 423 kts 236°
2026-05-01 12:18 53.66941 52.56650 33995 ft 423 kts 236°
2026-05-01 12:18 53.63636 52.48503 33988 ft 424 kts 236°
2026-05-01 12:19 53.60298 52.40303 33991 ft 423 kts 236°
2026-05-01 12:19 53.56955 52.32120 33988 ft 423 kts 236°
2026-05-01 12:20 53.53631 52.24007 33986 ft 424 kts 236°
2026-05-01 12:20 53.50267 52.15823 33991 ft 424 kts 236°
2026-05-01 12:21 53.46924 52.07715 33992 ft 423 kts 236°
2026-05-01 12:21 53.43557 51.99577 33992 ft 423 kts 236°
2026-05-01 12:22 53.40205 51.91502 33989 ft 423 kts 236°
2026-05-01 12:22 53.36850 51.83443 33992 ft 422 kts 236°
2026-05-01 12:23 53.33481 51.75379 33989 ft 422 kts 236°
2026-05-01 12:23 53.30114 51.67343 33998 ft 421 kts 236°
2026-05-01 12:24 53.26763 51.59370 33995 ft 420 kts 236°
2026-05-01 12:24 53.23393 51.51375 33996 ft 420 kts 236°
2026-05-01 12:25 53.18359 51.39480 33984 ft 419 kts 236°
2026-05-01 12:26 53.14990 51.31559 33985 ft 418 kts 236°
2026-05-01 12:26 53.09943 51.19737 33987 ft 416 kts 236°
2026-05-01 12:27 53.04911 51.07997 33986 ft 415 kts 236°
2026-05-01 12:28 52.99872 50.96294 33990 ft 415 kts 236°
2026-05-01 12:29 52.94835 50.84649 33987 ft 415 kts 236°
2026-05-01 12:29 52.89764 50.72978 33988 ft 415 kts 236°
2026-05-01 12:30 52.84697 50.61367 33986 ft 416 kts 236°
2026-05-01 12:31 52.81319 50.53653 33991 ft 416 kts 235°
2026-05-01 12:31 52.77898 50.45879 33989 ft 417 kts 235°
2026-05-01 12:32 52.74491 50.38172 33995 ft 417 kts 235°
2026-05-01 12:32 52.69349 50.26581 34000 ft 418 kts 235°
2026-05-01 12:33 52.65932 50.18898 34002 ft 418 kts 235°
2026-05-01 12:33 52.62483 50.11162 34013 ft 418 kts 235°
2026-05-01 12:34 52.59060 50.03504 34009 ft 418 kts 235°
2026-05-01 12:34 52.55589 49.95833 34017 ft 417 kts 233°
2026-05-01 12:35 52.51895 49.88428 34059 ft 422 kts 232°
2026-05-01 12:35 52.48093 49.80965 34258 ft 428 kts 232°
2026-05-01 12:36 52.46196 49.77217 34483 ft 427 kts 232°
2026-05-01 12:36 52.44304 49.73466 34744 ft 426 kts 232°
2026-05-01 12:36 52.42442 49.69770 34941 ft 426 kts 232°
2026-05-01 12:36 52.40554 49.66021 35151 ft 425 kts 232°
2026-05-01 12:37 52.38671 49.62286 35452 ft 423 kts 232°
2026-05-01 12:37 52.36794 49.58569 35729 ft 421 kts 232°
2026-05-01 12:37 52.34924 49.54871 35965 ft 420 kts 232°
2026-05-01 12:37 52.33062 49.51192 36037 ft 422 kts 232°
2026-05-01 12:38 52.29315 49.43813 36039 ft 424 kts 232°
2026-05-01 12:38 52.25547 49.36419 36061 ft 421 kts 232°
2026-05-01 12:39 52.21826 49.29135 36054 ft 418 kts 232°
2026-05-01 12:39 52.18106 49.21868 36070 ft 416 kts 232°
2026-05-01 12:40 52.14388 49.14624 36073 ft 415 kts 232°
2026-05-01 12:40 52.10700 49.07459 36076 ft 415 kts 232°
2026-05-01 12:41 52.06974 49.00244 36082 ft 415 kts 232°
2026-05-01 12:41 52.03247 48.93053 36083 ft 416 kts 232°
2026-05-01 12:42 51.99523 48.85879 36086 ft 417 kts 232°
2026-05-01 12:42 51.95786 48.78707 36088 ft 418 kts 231°
2026-05-01 12:43 51.92006 48.71484 36085 ft 419 kts 231°
2026-05-01 12:43 51.88223 48.64272 36089 ft 420 kts 231°
2026-05-01 12:44 51.84448 48.57094 36087 ft 420 kts 231°
2026-05-01 12:45 51.76858 48.42714 36088 ft 419 kts 231°
2026-05-01 12:45 51.73083 48.35597 36093 ft 419 kts 231°
2026-05-01 12:46 51.69301 48.28505 36089 ft 417 kts 231°
2026-05-01 12:46 51.65505 48.21404 36090 ft 416 kts 231°
2026-05-01 12:47 51.61718 48.14335 36095 ft 415 kts 231°
2026-05-01 12:47 51.57971 48.07359 36093 ft 414 kts 231°
2026-05-01 12:48 51.54199 48.00355 36097 ft 413 kts 231°
2026-05-01 12:48 51.50429 47.93374 36099 ft 413 kts 231°
2026-05-01 12:49 51.46656 47.86405 36104 ft 412 kts 231°
2026-05-01 12:49 51.42911 47.79508 36102 ft 412 kts 231°
2026-05-01 12:50 51.39139 47.72580 36103 ft 412 kts 231°
2026-05-01 12:50 51.36002 47.66833 36105 ft 412 kts 231°
2026-05-01 12:51 51.32221 47.59924 36103 ft 413 kts 231°
2026-05-01 12:52 51.26553 47.49600 36104 ft 413 kts 231°
2026-05-01 12:52 51.20841 47.39240 36107 ft 413 kts 231°
2026-05-01 12:53 51.15145 47.28949 36106 ft 413 kts 231°
2026-05-01 12:54 51.11351 47.22120 36108 ft 413 kts 230°
2026-05-01 12:54 51.05631 47.11855 36109 ft 413 kts 230°
2026-05-01 12:55 50.99905 47.01622 36103 ft 412 kts 230°
2026-05-01 12:56 50.96090 46.94827 36113 ft 411 kts 230°
2026-05-01 12:56 50.92299 46.88093 36108 ft 411 kts 230°
2026-05-01 12:57 50.88480 46.81326 36111 ft 411 kts 230°
2026-05-01 12:57 50.82778 46.71256 36116 ft 410 kts 230°
2026-05-01 12:58 50.78961 46.64539 36115 ft 410 kts 230°
2026-05-01 12:59 50.73250 46.54518 36118 ft 410 kts 230°
2026-05-01 12:59 50.67533 46.44528 36117 ft 410 kts 230°
2026-05-01 13:00 50.61788 46.34523 36124 ft 409 kts 230°
2026-05-01 13:01 50.56065 46.24575 36110 ft 409 kts 231°
2026-05-01 13:02 50.50442 46.14530 36123 ft 409 kts 231°
2026-05-01 13:07 50.09100 45.41846 36138 ft 403 kts 231°
2026-05-01 13:08 50.05343 45.35344 36140 ft 403 kts 230°
2026-05-01 13:08 50.00947 45.29867 36148 ft 410 kts 215°
2026-05-01 13:09 49.95685 45.26367 36157 ft 418 kts 202°
2026-05-01 13:09 49.90058 45.23948 36143 ft 419 kts 201°
2026-05-01 13:10 49.84465 45.21559 36134 ft 418 kts 201°
2026-05-01 13:10 49.78853 45.19111 36143 ft 418 kts 202°
2026-05-01 13:11 49.73242 45.16650 36141 ft 418 kts 202°
2026-05-01 13:11 49.67675 45.14216 36141 ft 417 kts 202°
2026-05-01 13:12 49.62083 45.11790 36141 ft 417 kts 202°
2026-05-01 13:12 49.56499 45.09381 36150 ft 416 kts 202°
2026-05-01 13:13 49.50951 45.06991 36144 ft 415 kts 202°
2026-05-01 13:13 49.45377 45.04594 36148 ft 414 kts 202°
2026-05-01 13:14 49.39854 45.02223 36152 ft 413 kts 202°
2026-05-01 13:14 49.34295 44.99842 36157 ft 413 kts 202°
2026-05-01 13:15 49.28779 44.97486 36147 ft 412 kts 202°
2026-05-01 13:15 49.23244 44.95127 36149 ft 411 kts 202°
2026-05-01 13:16 49.17761 44.92795 36149 ft 411 kts 202°
2026-05-01 13:16 49.12235 44.90451 36150 ft 410 kts 202°
2026-05-01 13:17 49.01257 44.85809 36154 ft 409 kts 202°
2026-05-01 13:18 48.93065 44.82358 36157 ft 407 kts 202°
2026-05-01 13:18 48.87604 44.80063 36149 ft 407 kts 202°
2026-05-01 13:19 48.82180 44.77755 36152 ft 405 kts 204°
2026-05-01 13:20 48.74190 44.73705 36153 ft 402 kts 206°
2026-05-01 13:20 48.68876 44.71021 36153 ft 402 kts 205°
2026-05-01 13:21 48.60915 44.67074 36155 ft 403 kts 205°
2026-05-01 13:21 48.55575 44.64444 36152 ft 403 kts 205°
2026-05-01 13:22 48.50238 44.61819 36155 ft 402 kts 205°
2026-05-01 13:22 48.44941 44.59222 36157 ft 402 kts 205°
2026-05-01 13:23 48.39603 44.56610 36155 ft 402 kts 205°
2026-05-01 13:23 48.34299 44.54020 36158 ft 402 kts 205°
2026-05-01 13:24 48.28964 44.51419 36159 ft 402 kts 205°
2026-05-01 13:25 48.21004 44.47550 36155 ft 402 kts 205°
2026-05-01 13:25 48.15673 44.44965 36159 ft 401 kts 205°
2026-05-01 13:26 48.10379 44.42403 36151 ft 401 kts 205°
2026-05-01 13:26 48.05062 44.39836 36156 ft 400 kts 205°
2026-05-01 13:27 47.99749 44.37276 36165 ft 400 kts 205°
2026-05-01 13:27 47.91793 44.33541 36151 ft 404 kts 202°
2026-05-01 13:28 47.83588 44.30577 36149 ft 405 kts 200°
2026-05-01 13:29 47.72649 44.26701 36156 ft 403 kts 201°
2026-05-01 13:31 47.56364 44.20875 36153 ft 400 kts 200°
2026-05-01 13:32 47.42845 44.16065 36164 ft 400 kts 200°
2026-05-01 13:33 47.29320 44.11276 36160 ft 402 kts 200°
2026-05-01 13:34 47.18386 44.07426 36160 ft 404 kts 200°
2026-05-01 13:35 47.10192 44.04550 36166 ft 405 kts 200°
2026-05-01 13:36 47.01962 44.01670 36152 ft 406 kts 200°
2026-05-01 13:36 46.93698 43.98803 36163 ft 406 kts 200°
2026-05-01 13:37 46.89110 43.97224 36157 ft 407 kts 200°
2026-05-01 13:37 46.82690 43.95017 36155 ft 406 kts 200°
2026-05-01 13:38 46.74457 43.92191 36153 ft 405 kts 199°
2026-05-01 13:39 46.68953 43.90306 36156 ft 405 kts 199°
2026-05-01 13:39 46.64387 43.88746 36154 ft 405 kts 199°
2026-05-01 13:40 46.58894 43.86872 36151 ft 404 kts 199°
2026-05-01 13:40 46.53447 43.85017 36144 ft 404 kts 199°
2026-05-01 13:41 46.47953 43.83153 36144 ft 404 kts 199°
2026-05-01 13:41 46.42479 43.81305 36143 ft 404 kts 199°
2026-05-01 13:42 46.37020 43.79464 36144 ft 404 kts 199°
2026-05-01 13:42 46.31519 43.77611 36126 ft 405 kts 199°
2026-05-01 13:43 46.26051 43.75773 36130 ft 405 kts 199°
2026-05-01 13:43 46.20543 43.73926 36119 ft 405 kts 199°
2026-05-01 13:44 46.15071 43.72095 36128 ft 405 kts 199°
2026-05-01 13:44 46.09534 43.70243 35635 ft 410 kts 199°
2026-05-01 13:44 46.06772 43.69324 35221 ft 405 kts 199°
2026-05-01 13:45 46.04037 43.68415 34802 ft 400 kts 200°
2026-05-01 13:45 46.01331 43.67516 34372 ft 396 kts 200°
2026-05-01 13:45 45.98690 43.66662 34082 ft 390 kts 199°
2026-05-01 13:45 45.96053 43.65896 33690 ft 385 kts 199°
2026-05-01 13:46 45.93440 43.65172 33310 ft 379 kts 198°
2026-05-01 13:46 45.90852 43.64461 32902 ft 375 kts 199°
2026-05-01 13:46 45.88298 43.63755 32473 ft 371 kts 199°
2026-05-01 13:46 45.85775 43.63052 32088 ft 367 kts 199°
2026-05-01 13:47 45.83303 43.62358 31677 ft 364 kts 199°
2026-05-01 13:47 45.80821 43.61659 31281 ft 361 kts 199°
2026-05-01 13:47 45.78366 43.60966 30890 ft 359 kts 199°
2026-05-01 13:47 45.75918 43.60276 30505 ft 356 kts 199°
2026-05-01 13:48 45.73493 43.59592 30113 ft 353 kts 199°
2026-05-01 13:48 45.71087 43.58914 29681 ft 351 kts 199°
2026-05-01 13:48 45.68707 43.58245 29287 ft 346 kts 199°
2026-05-01 13:48 45.66381 43.57591 28893 ft 343 kts 199°
2026-05-01 13:49 45.64047 43.56936 28506 ft 339 kts 199°
2026-05-01 13:49 45.61737 43.56287 28118 ft 336 kts 198°
2026-05-01 13:49 45.59449 43.55645 27734 ft 333 kts 198°
2026-05-01 13:49 45.57182 43.55009 27344 ft 330 kts 198°
2026-05-01 13:50 45.54953 43.54383 26987 ft 329 kts 198°
2026-05-01 13:50 45.52707 43.53754 26600 ft 327 kts 198°
2026-05-01 13:50 45.50467 43.53128 26232 ft 328 kts 198°
2026-05-01 13:50 45.48226 43.52497 25880 ft 338 kts 198°
2026-05-01 13:51 45.45880 43.51838 25284 ft 346 kts 198°
2026-05-01 13:51 45.43514 43.51183 24857 ft 345 kts 197°
2026-05-01 13:51 45.41158 43.50534 24465 ft 342 kts 197°
2026-05-01 13:51 45.38850 43.49899 24072 ft 340 kts 197°
2026-05-01 13:52 45.36530 43.49260 23681 ft 338 kts 197°
2026-05-01 13:52 45.34226 43.48624 23248 ft 336 kts 197°
2026-05-01 13:52 45.31946 43.47995 22845 ft 332 kts 197°
2026-05-01 13:52 45.29685 43.47372 22478 ft 328 kts 197°
2026-05-01 13:53 45.27447 43.46754 22108 ft 325 kts 197°
2026-05-01 13:53 45.23075 43.45549 21381 ft 319 kts 197°
2026-05-01 13:53 45.20901 43.44949 21031 ft 316 kts 197°
2026-05-01 13:54 45.18746 43.44355 20662 ft 314 kts 197°
2026-05-01 13:54 45.16611 43.43767 20318 ft 311 kts 197°
2026-05-01 13:54 45.14487 43.43184 19968 ft 309 kts 197°
2026-05-01 13:54 45.12401 43.42611 19631 ft 307 kts 197°
2026-05-01 13:55 45.10307 43.42036 19289 ft 305 kts 198°
2026-05-01 13:55 45.08299 43.41205 18945 ft 298 kts 206°
2026-05-01 13:55 45.06454 43.39930 18582 ft 293 kts 214°
2026-05-01 13:55 45.04701 43.38472 18216 ft 291 kts 214°
2026-05-01 13:56 45.02962 43.37011 17844 ft 289 kts 214°
2026-05-01 13:56 45.01235 43.35574 17510 ft 287 kts 214°
2026-05-01 13:56 44.99517 43.34154 17173 ft 284 kts 214°
2026-05-01 13:56 44.97836 43.32769 16841 ft 282 kts 214°
2026-05-01 13:57 44.96143 43.31377 16506 ft 281 kts 214°
2026-05-01 13:57 44.94456 43.29993 16170 ft 279 kts 213°
2026-05-01 13:57 44.92783 43.28621 15857 ft 277 kts 213°
2026-05-01 13:57 44.91113 43.27251 15537 ft 275 kts 213°
2026-05-01 13:58 44.89478 43.25910 15214 ft 274 kts 213°
2026-05-01 13:58 44.87834 43.24563 14901 ft 273 kts 213°
2026-05-01 13:58 44.86187 43.23214 14584 ft 272 kts 213°
2026-05-01 13:58 44.84571 43.21892 14267 ft 270 kts 212°
2026-05-01 13:59 44.82939 43.20557 13960 ft 270 kts 212°
2026-05-01 13:59 44.81314 43.19229 13617 ft 269 kts 212°
2026-05-01 13:59 44.79713 43.17921 13281 ft 268 kts 212°
2026-05-01 13:59 44.78105 43.16609 12963 ft 267 kts 212°
2026-05-01 14:00 44.76498 43.15298 12655 ft 266 kts 212°
2026-05-01 14:00 44.74887 43.13984 12340 ft 269 kts 212°
2026-05-01 14:00 44.73253 43.12652 12017 ft 273 kts 212°
2026-05-01 14:00 44.71597 43.11303 11697 ft 280 kts 211°
2026-05-01 14:01 44.69891 43.09915 11351 ft 284 kts 211°
2026-05-01 14:01 44.68187 43.08529 10994 ft 282 kts 211°
2026-05-01 14:01 44.66486 43.07147 10671 ft 281 kts 211°
2026-05-01 14:01 44.64816 43.05792 10384 ft 278 kts 211°
2026-05-01 14:02 44.63170 43.04457 10260 ft 269 kts 211°